INTELSAT 33E DEB, 61997

Orbit data source: Space-Track

INTELSAT 33E DEB, 61997 is space debris in GEO originally from a launch on Wed, 24 Aug 2016 UTC launched from the French Guiana (FRGUI). Debris objects in space refer to the collection of defunct objects orbiting the Earth. Examples of debris include non-operational satellites, rocket bodies, and fragments generated from explosions, collisions, or faulty payload assembly.

Not visible in the next 10 days
Identifier
61997, 2016-053P
Orbit
GEO
Country
Flag of USUS / ITSO
Related business
Manufacturer
Boeing/ES
Mission
Spacecraft
Bus & Motor
Unknown
Mass
Unknown
Launch date (UTC)
2016-08-24 (10 years ago)
Launch vehicle
Unknown
Launch site
French Guiana (FRGUI)
Object type
Payload
Rocket body
Debris
Shape & HBR
Unknown shape, 1.1 m
Radar Cross Section
RCS unknown

Expand to show TLE details & history
Last TLE update: 1 day ago

TLE from 1 day ago
0 INTELSAT 33E DEB
1 61997U 16053P   26165.25240030 -.00000283  00000-0  00000-0 0  9997
2 61997   1.5637  85.4257 0098299 272.7293  85.1704  1.01614484  6130
Epoch: 2026-06-14T06:03Z
TLE epoch observation values (Epoch: 2026-06-14T06:03:27.385Z)
Latitude
-0.00001°
Longitude
91.02189°
Altitude
35,382.776 km
Speed
3.091 km/s
True Right ascension
05h 37m 46s
True Declination
0° 00' 00"
Sunlit
Object was in daylight at epoch
Visualization orbit readout
Latitude
Unknown
Longitude
Unknown
Altitude
Unknown
Speed
Unknown
Apparent Right ascension
Unknown
Apparent Declination
Unknown
Sunlit
N/A
Visualization observer readout
Local Sidereal Time
01:34:40
Azimuth
Unknown
Elevation
Unknown
Doppler factor
Unknown
Orbital elements
Apogee altitude
35,826.243 km
Perigee altitude
35,004.591 km
Semi-major axis
41,793.554 km
Eccentricity
0.00983
Inclination
1.5637°
RAAN
85.4257°
Arg. of periapsis
272.7293°
True anomaly
86.29391°
Mean anomaly
85.1704°
Eccentric anomaly
85.73205°
Mean motion
0.25403 °/min
Orbital period
1,417.17 mins
BSTAR
0
Loading maneuver chart data...
Computing Atmospheric mass density...
Loading historical data...
Loading historical data...
Loading historical data...
Loading historical data...
Loading historical data...
Loading historical data...
Loading historical data...

Documentation

Showing up to 5 results
|